Location: ?
(35.4064°N, 139.3593°E)
Time: 04:45:55
(UTC+00:00)

CZ-2C R/B - Pass Details

Date: 18 April 2024
Orbit: 782 x 869 km, 98.3° (Epoch: 20 May)

Event Time Altitude Azimuth Distance (km) Brightness Sun altitude
Exits shadow 17:08:46 40° 347° (NNW) 1,216 3.6 -31.9°
Drops below altitude 10° 17:12:05 10° 347° (NNW) 2,429 5.4 -31.4°
Sets 17:14:25 0° 348° (NNW) 3,352 6.2 -31.1°
